Wolf Point, MT

2:42 AM MDT on May 26, 2017 (GMT -0600)
Clayton

Weather History for KOLF - June, 2014

Change the Weather History Date:

Monday, June 16, 2014

  Actual Average Record
Temperature  
Mean Temperature 58 °F -  
Max Temperature 74 °F 78 °F 84 °F (2002)
Min Temperature 41 °F 49 °F 41 °F (2014)
Degree Days  
Heating Degree Days 7    
Cooling Degree Days 0    
Growing Degree Days 8 (Base 50)    
Moisture  
Dew Point 46 °F    
Average Humidity 62    
Maximum Humidity 89    
Minimum Humidity 41    
Precipitation  
Precipitation T in 0.10 in 0.71 in (2007)
Month to date precipitation 0.34 1.65  
Year to date precipitation 3.47 5.35  
Sea Level Pressure  
Sea Level Pressure 29.71 in    
Wind  
Wind Speed 8 mph (ENE)    
Max Wind Speed 21 mph    
Max Gust Speed 26 mph    
Visibility 10 miles    
Events      
T = Trace of Precipitation, MM = Missing Value Source: NWS Daily Summary

Daily Weather History Graph

Daily Weather History Graph

Search for Another Location

Airport or City:

Trip Planner

Search our weather history database for the weather conditions in past years. The results will help you decide how hot, cold, wet, or windy it might be!

Date:

Astronomy

Jun. 16, 2014 Rise Set
Actual Time 5:01 AM MDT 9:04 PM MDT
Civil Twilight 4:20 AM MDT 9:45 PM MDT
Nautical Twilight 3:22 AM MDT 10:43 PM MDT
Astronomical Twilight 1:43 AM MDT 12:24 AM MDT
Moon 11:38 PM MDT (6/16) 9:25 AM MDT (6/16)
Length of Visible Light 17h 25m
Length of Day
16h 02m
Waning Gibbous, 82% of the Moon is Illuminated
Jun 16
Waning Gibbous
Jun 19
Last Quarter
Jun 27
New
Jul 5
First Quarter
Jul 12
Full

Hourly Weather History & Observations

Time (MDT) Temp. Windchill Dew Point Humidity Pressure Visibility Wind Dir Wind Speed Gust Speed Precip Events Conditions
12:53 AM 48.9 °F - 43.0 °F 80% 29.73 in 10.0 mi NE 3.5 mph - N/A   Mostly Cloudy
1:53 AM 45.0 °F - 41.0 °F 86% 29.72 in 10.0 mi Calm Calm - N/A   Clear
2:53 AM 43.0 °F - 39.9 °F 89% 29.73 in 10.0 mi Calm Calm - N/A   Clear
3:53 AM 42.1 °F 39.2 °F 39.0 °F 89% 29.71 in 10.0 mi NE 4.6 mph - N/A   Clear
4:53 AM 44.1 °F - 41.0 °F 89% 29.71 in 10.0 mi Calm Calm - N/A   Scattered Clouds
5:53 AM 46.9 °F - 43.0 °F 86% 29.71 in 10.0 mi ENE 3.5 mph - N/A   Scattered Clouds
6:53 AM 52.0 °F - 46.0 °F 80% 29.71 in 10.0 mi East 4.6 mph - N/A   Overcast
7:53 AM 57.0 °F - 48.9 °F 74% 29.70 in 10.0 mi East 9.2 mph - 0.00 in   Scattered Clouds
8:53 AM 61.0 °F - 48.0 °F 62% 29.70 in 10.0 mi ENE 16.1 mph - N/A   Mostly Cloudy
9:53 AM 63.0 °F - 48.9 °F 60% 29.70 in 10.0 mi ENE 15.0 mph - N/A   Overcast
10:53 AM 63.0 °F - 48.9 °F 60% 29.72 in 10.0 mi NE 13.8 mph - N/A   Overcast
11:53 AM 66.9 °F - 48.9 °F 52% 29.72 in 10.0 mi NE 13.8 mph - N/A   Mostly Cloudy
12:53 PM 70.0 °F - 48.0 °F 46% 29.70 in 10.0 mi NE 15.0 mph - N/A   Overcast
1:53 PM 71.1 °F - 46.9 °F 42% 29.70 in 10.0 mi East 13.8 mph - N/A   Mostly Cloudy
2:53 PM 71.1 °F - 46.9 °F 42% 29.70 in 10.0 mi ENE 15.0 mph 24.2 mph N/A   Overcast
3:53 PM 70.0 °F - 46.9 °F 44% 29.69 in 10.0 mi NE 16.1 mph - 0.00 in   Overcast
4:53 PM 72.0 °F - 48.0 °F 43% 29.68 in 10.0 mi NE 16.1 mph 24.2 mph N/A   Overcast
5:53 PM 73.0 °F - 48.0 °F 41% 29.68 in 10.0 mi NE 16.1 mph - N/A   Scattered Clouds
6:53 PM 71.1 °F - 48.9 °F 45% 29.68 in 10.0 mi ENE 20.7 mph 26.5 mph N/A   Clear
7:53 PM 69.1 °F - 48.9 °F 49% 29.68 in 10.0 mi NE 15.0 mph - N/A   Partly Cloudy
8:53 PM 64.9 °F - 48.0 °F 54% 29.69 in 10.0 mi NE 15.0 mph - N/A   Clear
9:53 PM 62.1 °F - 48.0 °F 60% 29.71 in 10.0 mi NE 11.5 mph - N/A   Clear
10:53 PM 60.1 °F - 48.0 °F 64% 29.73 in 10.0 mi NE 12.7 mph - N/A   Clear
11:53 PM 61.0 °F - 46.0 °F 58% 29.73 in 10.0 mi ENE 12.7 mph - N/A   Scattered Clouds